GMT,Max TemperatureF,Mean TemperatureF,Min TemperatureF,Max Dew PointF,MeanDew PointF,Min DewpointF,Max Humidity, Mean Humidity, Min Humidity, Max Sea Level PressureIn, Mean Sea Level PressureIn, Min Sea Level PressureIn, Max VisibilityMiles, Mean VisibilityMiles, Min VisibilityMiles, Max Wind SpeedMPH, Mean Wind SpeedMPH, Max Gust SpeedMPH,PrecipitationIn, CloudCover, Events, WindDirDegrees
2013-11-1,57,54,51,54,50,48,94,85,77,29.94,29.77,29.56,19,8,2,13,8,,0.12,7,Rain,205
2013-11-2,59,54,50,50,46,37,100,76,49,29.58,29.47,29.39,16,6,3,24,9,43,0.02,5,Rain,245
2013-11-3,54,49,44,45,39,36,93,70,47,29.58,29.47,29.06,16,6,2,24,17,,0.47,4,,244
2013-11-4,50,44,39,45,38,34,93,77,47,29.51,29.29,29.03,19,7,3,17,13,,0.02,3,,318
2013-11-5,54,45,36,50,42,34,100,82,54,29.50,29.36,29.24,19,7,2,22,7,,0.08,6,Rain,256
2013-11-6,59,54,48,55,50,40,100,87,62,29.54,29.50,29.47,16,7,2,20,9,30,0.12,7,Rain,229
2013-11-7,52,47,42,55,44,38,94,80,51,29.78,29.72,29.52,16,9,6,17,8,,0.00,5,,253
2013-11-8,51,42,34,48,41,34,100,92,84,29.78,29.67,29.59,16,6,2,14,4,,0.43,6,Fog-Rain-Thunderstorm,273
2013-11-9,46,40,33,43,39,34,100,91,75,29.78,29.69,29.62,19,7,2,10,6,,0.12,6,Fog-Rain,234
2013-11-10,48,40,32,41,36,30,100,80,41,30.28,30.00,29.62,19,7,3,15,6,,0.00,3,,320
2013-11-11,55,43,31,54,47,30,100,93,85,30.27,30.17,30.12,14,4,1,12,6,,0.02,7,Rain,190
2013-11-12,54,46,37,54,45,36,100,87,64,30.51,30.30,30.15,19,7,2,14,6,25,0.03,6,Rain,311
2013-11-13,51,40,30,41,36,30,100,80,46,30.58,30.46,30.21,16,7,0,10,4,,0.01,5,Fog,223
2013-11-14,49,44,39,43,37,32,82,71,48,30.42,30.23,30.12,19,8,6,22,12,31,0.00,3,,305
2013-11-15,49,41,33,36,33,30,93,73,46,30.54,30.49,30.42,19,9,4,10,7,,0.00,4,,349
2013-11-16,49,38,28,43,37,28,100,90,70,30.54,30.46,30.39,16,6,2,8,3,,0.01,6,Fog-Rain,267
2013-11-17,49,46,43,46,44,41,100,89,79,30.40,30.23,30.01,12,5,1,6,3,,0.01,7,,26
2013-11-18,49,46,42,46,45,37,100,91,77,30.03,29.84,29.77,19,4,0,13,5,,0.00,7,Rain,294
2013-11-19,42,36,28,38,30,25,93,76,39,30.07,29.94,29.80,19,8,6,15,9,,0.01,2,,313
2013-11-20,44,35,26,41,34,26,93,86,75,30.06,29.61,29.42,19,7,2,20,8,38,0.20,6,Rain-Thunderstorm,284
2013-11-21,46,42,37,37,34,32,87,74,48,29.92,29.66,29.42,11,6,6,21,13,32,0.00,5,Rain,24
2013-11-22,46,42,37,37,33,30,93,73,49,30.18,30.06,29.92,16,7,6,17,11,,0.00,2,,13
2013-11-23,45,40,35,38,35,33,93,79,54,30.32,30.24,30.15,19,8,6,15,9,,0.00,4,,6
2013-11-24,46,42,39,41,37,34,87,76,56,30.57,30.43,30.33,19,8,6,13,8,,0.01,7,Rain,8
2013-11-25,45,41,37,36,35,34,87,76,58,30.70,30.64,30.57,19,9,6,10,7,,0.00,6,,358
2013-11-26,45,38,32,37,33,30,93,73,51,30.72,30.66,30.57,19,8,6,8,5,,0.00,6,,314
2013-11-27,51,46,41,47,43,37,93,88,74,30.59,30.53,30.48,12,6,4,5,4,,0.00,7,Rain,299
2013-11-28,49,46,44,45,44,43,93,86,70,30.58,30.55,30.51,7,5,4,7,4,,0.00,8,,331
2013-11-29,50,46,42,44,39,34,89,75,50,30.54,30.30,30.18,12,6,5,16,8,,0.01,6,Rain,291
2013-11-30,47,40,32,37,34,30,93,73,57,30.48,30.34,30.18,19,8,6,15,11,,0.00,5,,337